Location: Unspecified
(0.0000°N, 0.0000°E)
Time: 15:32:41
(UTC+00:00)

NOSS 3-4 (A) - Pass Details

Date: 10 August 2024
Orbit: 801 x 1411 km, 63.4° (Epoch: 05 September)

Event Time Altitude Azimuth Distance (km) Brightness Sun altitude
Rises 19:02:49 0° 191° (SSW) 3,554 6.4 -13.9°
Reaches altitude 10° 19:05:34 10° 185° (S) 2,536 5.6 -14.5°
Maximum altitude 19:11:00 43° 114° (ESE) 1,147 3.4 -15.8°
Drops below altitude 10° 19:16:04 10° 43° (NE) 2,368 5.3 -17.1°
Sets 19:18:32 0° 36° (NE) 3,293 6.1 -17.7°
